Stations météo

réclame
Mon MeteoGroup
Biarritz, France (7602): Température de l'air & dewpoint: 12.01.2019 13:00:00 - 18.01.2019 13:00:00 (CET)Biarritz, France (7602): Température de l'air 5cm: 12.01.2019 13:00:00 - 18.01.2019 13:00:00 (CET)Biarritz, France (7602): Température de l'air -20cm & Température de l'air -100cm: 12.01.2019 13:00:00 - 18.01.2019 13:00:00 (CET)Biarritz, France (7602): Vitesse du vent & gusts: 12.01.2019 13:00:00 - 18.01.2019 13:00:00 (CET)Biarritz, France (7602): Direction du vent: 12.01.2019 13:00:00 - 18.01.2019 13:00:00 (CET)Biarritz, France (7602): reduced air pressure: 12.01.2019 13:00:00 - 18.01.2019 13:00:00 (CET)Biarritz, France (7602): visibility: 12.01.2019 13:00:00 - 18.01.2019 13:00:00 (CET)Biarritz, France (7602): Ensoleillement: 12.01.2019 13:00:00 - 18.01.2019 13:00:00 (CET)Biarritz, France (7602): Quantités de précipitations: 12.01.2019 13:00:00 - 18.01.2019 13:00:00 (CET)
Date & Time tt [°C] td [°C] tt 5cm [°C] tt -20cm [°C] tt -100cm [°C] ff [km/h] ff [knt] fx [km/h] fx [knt] dd ppp [hPa] vv [km] sd [min] rr [mm]
18.01.2019 13:00:00 - - - - - - - - - - - - - -
18.01.2019 12:00:00 7,6 5,4 7,8 8,2 10,3 5 3 10 5 S 1020,0 34 0 0,0
18.01.2019 11:00:00 7,1 4,9 6,4 8,3 10,3 5 3 11 6 SSW 1020,3 59 0 0,0
18.01.2019 10:00:00 6,0 4,6 5,4 8,3 10,3 6 3 10 5 S 1020,1 52 0 0,0
18.01.2019 09:00:00 5,4 4,4 4,7 8,4 10,3 6 3 11 6 S 1019,8 53 0 0,0
18.01.2019 08:00:00 5,5 4,3 4,7 8,4 10,3 9 5 18 10 E 1020,0 52 0 0,0
18.01.2019 07:00:00 5,9 4,5 3,8 8,5 10,3 4 2 14 8 SSE 1019,9 12 0 0,2
18.01.2019 06:00:00 4,9 3,7 3,8 8,6 10,3 7 4 15 8 SW 1020,2 60 0 0,0
18.01.2019 05:00:00 5,3 4,3 3,6 8,6 10,3 9 5 21 11 SW 1020,5 59 0 0,0
18.01.2019 04:00:00 5,6 4,4 4,1 8,7 10,3 11 6 31 17 SW 1021,0 37 0 0,4
18.01.2019 03:00:00 5,2 4,5 3,8 8,8 10,3 7 4 11 6 SSW 1021,6 54 0 0,0
18.01.2019 02:00:00 5,2 4,2 4,2 8,9 10,3 5 3 13 7 SSW 1021,8 35 0 0,2
18.01.2019 01:00:00 6,4 5,0 5,7 8,9 10,3 7 4 18 10 S 1022,1 4,8 0 0,8
18.01.2019 00:00:00 6,6 5,1 5,5 9,0 10,3 5 3 15 8 SW 1022,3 11 0 0,0
17.01.2019 23:00:00 6,2 4,7 4,8 9,0 10,3 8 4 14 8 SW 1022,0 25 0 0,0
17.01.2019 22:00:00 6,8 5,3 5,3 9,1 10,3 10 5 16 9 SSW 1022,0 37 0 0,0
17.01.2019 21:00:00 9,4 5,2 7,2 9,1 10,3 10 5 23 12 WNW 1021,5 50 0 0,0
17.01.2019 20:00:00 8,0 6,9 7,5 9,1 10,3 4 2 24 13 WSW 1021,5 19 0 0,4
17.01.2019 19:00:00 8,5 7,1 7,6 9,1 10,3 9 5 16 8 SW 1020,9 16 0 0,0
17.01.2019 18:00:00 8,9 6,9 8,9 9,1 10,2 6 4 17 9 SW 1020,4 15 19 0,0
17.01.2019 17:00:00 9,9 5,9 9,6 9,1 10,3 9 5 26 14 WNW 1020,2 40 3 0,0
17.01.2019 16:00:00 9,5 5,7 8,9 9,0 10,2 19 10 44 24 N 1020,1 35 27 0,0
17.01.2019 15:00:00 9,3 6,0 8,0 8,9 10,3 21 12 35 19 W 1020,1 6 14 0,4
17.01.2019 14:00:00 9,9 7,5 9,3 8,8 10,3 12 6 27 15 WSW 1020,2 20 8 0,0
17.01.2019 13:00:00 9,9 6,4 8,7 8,8 10,2 10 5 29 16 WSW 1020,5 38 16 0,0
17.01.2019 12:00:00 9,3 6,9 8,0 8,8 10,3 12 6 49 26 NNW 1021,0 14 23 1,2
17.01.2019 11:00:00 11,0 5,9 10,4 8,8 10,3 21 12 30 16 WNW 1020,6 18 21 0,0
17.01.2019 10:00:00 10,3 5,3 9,9 8,8 10,3 15 8 28 15 WNW 1020,1 43 0 0,0
17.01.2019 09:00:00 10,3 5,5 9,3 8,7 10,2 14 8 30 16 NW 1019,4 41 0 0,0
17.01.2019 08:00:00 10,5 5,5 9,8 8,8 10,3 20 11 34 18 NW 1018,7 41 0 0,0
17.01.2019 07:00:00 10,7 7,2 9,9 8,7 10,3 17 9 28 15 NW 1018,0 33 0 0,0
17.01.2019 06:00:00 10,4 8,2 9,1 8,7 10,3 14 7 23 13 NW 1017,5 36 0 0,4
17.01.2019 05:00:00 9,5 8,9 8,7 8,7 10,2 10 5 34 19 W 1017,3 7 0 3,4
17.01.2019 04:00:00 8,9 8,0 8,7 8,7 10,3 8 4 34 18 SW 1017,3 5 0 1,2
17.01.2019 03:00:00 10,4 7,8 9,1 8,6 10,2 12 6 26 14 WSW 1017,0 10 0 0,2
17.01.2019 02:00:00 10,5 6,6 9,1 8,7 10,3 8 5 14 7 WSW 1016,9 19 0 0,0
17.01.2019 01:00:00 10,1 6,8 8,6 8,7 10,3 8 5 12 6 SW 1017,1 24 0 0,0
17.01.2019 00:00:00 10,2 6,5 9,1 8,6 10,3 5 3 13 7 SW 1017,2 5 0 0,0
16.01.2019 23:00:00 10,3 6,3 8,3 8,7 10,3 8 4 15 8 SW 1017,3 19 0 0,0
16.01.2019 22:00:00 9,0 5,9 6,6 8,7 10,3 6 3 10 5 SW 1017,2 10 0 0,0
16.01.2019 21:00:00 9,6 5,9 8,0 8,7 10,3 4 2 13 7 S 1017,0 14 0 0,0
16.01.2019 20:00:00 9,5 6,4 7,5 8,7 10,3 6 3 11 6 SSW 1017,0 14 0 0,0
16.01.2019 19:00:00 9,8 6,9 7,6 8,6 10,3 5 3 10 5 SSW 1016,8 17 0 0,0
16.01.2019 18:00:00 10,4 8,3 9,7 8,6 10,3 5 3 13 7 SSW 1016,6 15 19 0,0
16.01.2019 17:00:00 11,6 8,8 12,2 8,4 10,3 7 4 18 10 W 1016,3 20 54 0,0
16.01.2019 16:00:00 12,5 9,0 14,9 8,2 10,3 13 7 21 11 W 1016,1 20 60 0,0
16.01.2019 15:00:00 12,6 8,9 13,4 8,1 10,3 15 8 28 15 WNW 1016,1 20 53 0,0
16.01.2019 14:00:00 12,4 8,9 13,7 7,9 10,3 22 12 32 17 WNW 1016,4 16 56 0,0
16.01.2019 13:00:00 12,0 9,0 14,0 7,8 10,3 24 13 37 20 WNW 1017,1 17 60 0,0
16.01.2019 12:00:00 12,0 8,3 14,2 7,8 10,3 25 14 35 19 WNW 1017,4 19 60 0,0
16.01.2019 11:00:00 10,6 7,7 9,0 7,8 10,3 12 6 18 10 WNW 1017,1 20 37 0,0
16.01.2019 10:00:00 9,0 7,1 3,1 7,8 10,3 6 3 14 8 W 1016,7 31 33 0,0
16.01.2019 09:00:00 4,1 3,7 -0,5 8,0 10,3 6 4 9 5 W 1016,3 9 0 0,0
16.01.2019 08:00:00 1,9 1,6 -1,2 8,1 10,2 0 0 7 4 N 1016,1 14 0 0,0
16.01.2019 07:00:00 0,6 0,5 -1,1 8,2 10,3 4 2 9 5 ESE 1015,8 7 0 0,0
16.01.2019 06:00:00 0,9 0,6 -1,3 8,3 10,2 5 3 6 3 SSE 1015,9 9 0 0,0
16.01.2019 05:00:00 1,3 1,0 -1,0 8,5 10,3 2 1 6 4 SE 1016,4 2,3 0 0,0
16.01.2019 04:00:00 2,0 1,7 -0,5 8,6 10,3 4 2 11 6 SSE 1016,8 5 0 0,2
16.01.2019 03:00:00 2,2 1,8 -0,7 8,7 10,2 8 4 11 6 SSE 1017,3 2,5 0 0,0
16.01.2019 02:00:00 3,3 2,9 0,0 8,9 10,2 4 2 9 5 SE 1017,8 10 0 0,0
16.01.2019 01:00:00 3,3 2,7 1,3 9,0 10,2 8 4 15 8 E 1018,3 10 0 0,0
16.01.2019 00:00:00 3,0 2,3 1,4 9,1 10,2 12 6 14 8 E 1018,8 12 0 0,0
15.01.2019 23:00:00 3,8 2,8 2,1 9,2 10,2 9 5 14 7 ESE 1019,2 16 0 0,0
15.01.2019 22:00:00 4,7 3,4 2,9 9,4 10,2 8 5 10 6 E 1019,5 15 0 0,0
15.01.2019 21:00:00 5,4 3,9 3,3 9,5 10,2 6 4 11 6 E 1019,7 25 0 0,0
15.01.2019 20:00:00 6,5 3,8 4,9 9,6 10,2 10 5 15 8 E 1019,9 37 0 0,0
15.01.2019 19:00:00 8,2 5,1 6,7 9,6 10,2 10 6 22 12 ENE 1019,9 48 0 0,0
15.01.2019 18:00:00 9,1 5,5 8,1 9,6 10,1 12 7 21 11 ENE 1019,8 56 30 0,0
15.01.2019 17:00:00 10,3 5,9 11,7 9,6 10,1 14 7 26 14 ENE 1019,9 57 60 0,0
15.01.2019 16:00:00 11,1 6,4 13,5 9,5 10,1 16 9 26 14 E 1020,3 35 60 0,0
15.01.2019 15:00:00 11,3 6,2 13,8 9,4 10,1 17 9 29 15 E 1020,8 36 60 0,0
15.01.2019 14:00:00 11,0 6,1 11,4 9,3 10,1 20 11 30 16 E 1021,6 40 30 0,0
15.01.2019 13:00:00 10,1 6,8 10,8 9,2 10,1 16 9 25 14 E 1023,0 48 1 0,0
15.01.2019 12:00:00 9,5 7,4 9,6 9,2 10,1 11 6 17 9 E 1024,1 28 6 0,0
15.01.2019 11:00:00 8,7 7,0 8,0 9,2 10,1 11 6 16 9 ENE 1024,6 25 0 0,0
15.01.2019 10:00:00 8,0 6,5 7,1 9,3 10,1 10 6 14 8 ENE 1024,7 26 0 0,0
15.01.2019 09:00:00 7,6 6,4 7,0 9,3 10,1 8 5 13 7 ENE 1024,6 24 0 0,0
15.01.2019 08:00:00 7,9 6,7 7,2 9,3 10,0 7 4 12 6 ENE 1024,6 30 0 0,0
15.01.2019 07:00:00 8,0 7,1 7,6 9,4 10,0 7 4 11 6 NE 1024,9 26 0 0,0
15.01.2019 06:00:00 8,2 7,6 7,6 9,4 10,0 6 4 - - NNE 1024,7 26 0 0,0
15.01.2019 05:00:00 7,9 7,6 8,0 9,4 10,0 8 4 12 7 E 1025,2 20 0 0,0
15.01.2019 04:00:00 8,3 8,0 8,2 9,5 10,0 8 4 11 6 E 1025,6 10 0 0,0
15.01.2019 03:00:00 8,5 8,2 8,3 9,5 10,0 5 3 9 5 E 1025,9 13 0 0,0
15.01.2019 02:00:00 8,4 8,1 8,2 9,5 10,0 5 3 8 5 E 1026,1 2,3 0 0,0
15.01.2019 01:00:00 8,5 8,2 7,5 9,6 10,0 4 2 7 4 ESE 1026,1 3,1 0 0,0
15.01.2019 00:00:00 9,1 8,8 9,0 9,6 10,0 4 2 8 4 E 1026,5 2,9 0 0,0
14.01.2019 23:00:00 9,5 9,2 9,5 9,6 10,0 3 2 14 7 SE 1026,5 7 0 0,0
14.01.2019 22:00:00 9,7 9,2 9,3 9,6 10,0 5 3 7 4 ENE 1026,5 2,8 0 0,4
14.01.2019 21:00:00 9,9 9,4 9,9 9,6 10,0 3 1 23 12 N 1026,4 2,1 0 0,6
14.01.2019 20:00:00 10,5 9,9 10,3 9,6 10,0 10 5 22 12 NW 1026,2 2,5 0 0,2
14.01.2019 19:00:00 10,8 10,2 10,4 9,5 9,9 10 5 28 15 NW 1026,0 19 0 0,2
14.01.2019 18:00:00 10,6 9,8 10,4 9,5 9,9 17 9 35 19 WNW 1026,2 4,6 0 0,2
14.01.2019 17:00:00 10,6 9,5 10,5 9,4 9,9 13 7 29 16 WNW 1026,2 46 0 0,0
14.01.2019 16:00:00 11,4 9,8 11,3 9,3 9,9 15 8 29 16 WNW 1026,1 16 0 0,0
14.01.2019 15:00:00 11,3 9,6 12,3 9,2 9,9 17 9 36 20 WNW 1026,2 47 0 0,0
14.01.2019 14:00:00 11,3 9,6 11,1 9,1 9,9 14 8 35 19 WNW 1026,4 20 0 0,0
14.01.2019 13:00:00 11,8 9,7 12,2 9,0 9,9 17 9 31 17 NW 1026,9 20 0 0,0
14.01.2019 12:00:00 12,1 8,6 11,0 9,0 9,9 14 8 29 15 NW 1027,2 55 7 0,0
14.01.2019 11:00:00 11,2 10,1 10,3 8,9 9,8 10 5 28 15 WNW 1027,3 37 5 0,2
14.01.2019 10:00:00 10,4 9,6 10,2 8,8 9,8 12 7 29 15 WNW 1027,2 6 6 0,4
14.01.2019 09:00:00 10,5 9,7 9,1 8,9 9,9 14 8 40 21 WNW 1026,8 38 0 0,2
14.01.2019 08:00:00 10,0 9,2 9,9 8,8 9,9 20 11 41 22 WNW 1026,6 2,4 0 0,6
14.01.2019 07:00:00 10,4 9,6 9,8 8,8 9,9 16 8 41 22 WNW 1026,3 37 0 0,2
14.01.2019 06:00:00 10,7 9,8 9,7 8,8 9,8 21 11 31 17 W 1026,3 35 0 0,0
14.01.2019 05:00:00 10,4 9,5 9,6 8,8 9,8 25 14 42 23 W 1026,6 32 0 0,4
14.01.2019 04:00:00 10,4 9,6 9,7 8,8 9,9 16 9 35 19 W 1027,1 33 0 0,4
14.01.2019 03:00:00 9,9 8,8 9,5 8,7 9,8 17 9 44 24 W 1027,4 42 0 0,0
14.01.2019 02:00:00 10,2 9,6 9,7 8,7 9,8 16 9 33 18 W 1027,5 31 0 0,0
14.01.2019 01:00:00 10,3 9,8 9,8 8,7 9,8 17 9 45 24 WNW 1028,1 35 0 0,2
14.01.2019 00:00:00 10,2 9,9 9,9 8,6 9,8 24 13 39 21 W 1028,6 4,1 0 0,4
13.01.2019 23:00:00 10,3 10,0 9,5 8,6 9,8 20 11 35 19 W 1028,5 3,7 0 0,8
13.01.2019 22:00:00 9,4 8,9 9,4 8,6 9,8 11 6 24 13 WSW 1028,8 1,8 0 1,2
13.01.2019 21:00:00 9,6 9,0 9,5 8,5 9,8 13 7 36 19 WSW 1028,7 6 0 0,0
13.01.2019 20:00:00 10,6 9,7 10,2 8,5 9,8 22 12 43 23 W 1028,7 18 0 0,0
13.01.2019 19:00:00 10,1 9,8 10,0 8,4 9,8 18 10 42 23 W 1028,7 16 0 0,2
13.01.2019 18:00:00 10,0 9,7 10,0 8,4 9,8 25 14 41 22 W 1029,0 5 0 0,8
13.01.2019 17:00:00 10,1 9,8 9,9 8,3 9,8 26 14 44 24 W 1029,1 3,5 0 0,8
13.01.2019 16:00:00 9,8 9,3 9,8 8,2 9,8 21 12 44 24 W 1029,1 2,5 0 0,4
13.01.2019 15:00:00 10,3 9,8 10,5 8,1 9,8 26 14 46 25 W 1029,6 3,0 0 0,2
13.01.2019 14:00:00 10,8 10,2 10,6 7,9 9,8 25 13 40 22 W 1030,0 7 3 0,2
13.01.2019 13:00:00 10,8 10,3 9,9 7,9 9,8 20 11 29 16 W 1030,6 35 0 0,2
13.01.2019 12:00:00 9,6 9,1 9,8 7,8 9,8 18 10 31 17 WNW 1031,6 2,1 0 3,0
13.01.2019 11:00:00 9,6 9,0 9,6 7,7 9,8 9 5 28 15 W 1032,1 1,6 0 1,8
13.01.2019 10:00:00 9,8 8,9 9,2 7,7 9,8 9 5 31 17 WSW 1031,6 12 0 0,0
13.01.2019 09:00:00 9,7 8,6 9,0 7,6 9,8 11 6 35 19 W 1031,6 43 0 0,0
13.01.2019 08:00:00 10,2 7,4 9,8 7,6 9,8 21 11 31 17 WNW 1031,3 55 0 0,0
13.01.2019 07:00:00 10,3 7,0 9,3 7,5 9,8 16 8 26 14 W 1031,2 60 0 0,0
13.01.2019 06:00:00 9,5 7,6 7,9 7,5 9,8 8 4 24 13 W 1031,6 39 0 0,0
13.01.2019 05:00:00 8,0 6,0 7,6 7,5 9,8 7 4 9 5 S 1031,9 39 0 0,0
13.01.2019 04:00:00 7,7 6,2 6,6 7,5 9,8 6 3 8 5 S 1032,3 23 0 0,0
13.01.2019 03:00:00 7,2 5,8 7,0 7,5 9,8 5 3 11 6 SSE 1032,3 17 0 0,0
13.01.2019 02:00:00 7,2 5,8 7,0 7,4 9,8 4 2 8 4 S 1032,7 14 0 0,0
13.01.2019 01:00:00 7,4 5,5 7,2 7,4 9,9 7 4 13 7 SSE 1033,2 11 0 0,0
13.01.2019 00:00:00 9,1 5,3 7,9 7,4 9,9 3 2 5 3 SSW 1033,7 20 0 0,0
12.01.2019 23:00:00 9,9 5,3 9,2 7,4 9,9 0 0 5 3 N 1033,6 26 0 0,0
12.01.2019 22:00:00 9,8 5,2 9,3 7,4 9,9 3 2 11 6 ENE 1033,7 39 0 0,0
12.01.2019 21:00:00 9,6 5,4 8,1 7,3 9,9 4 2 13 7 NW 1033,6 33 0 0,0
12.01.2019 20:00:00 8,3 6,1 7,9 7,2 9,9 5 3 15 8 SW 1033,6 15 0 0,0
12.01.2019 19:00:00 8,2 6,0 7,6 7,2 9,9 5 3 8 5 SW 1033,4 12 0 0,0
12.01.2019 18:00:00 8,4 5,5 7,7 7,1 9,9 3 1 5 3 SW 1033,0 45 0 0,0
12.01.2019 17:00:00 8,9 5,1 9,0 7,0 9,9 3 1 10 5 W 1032,8 60 0 0,0
12.01.2019 16:00:00 9,2 5,0 10,1 6,8 9,9 2 1 9 5 SSW 1032,9 60 0 0,0
12.01.2019 15:00:00 9,5 4,9 11,3 6,7 9,9 2 1 8 4 WNW 1032,9 43 0 0,0
12.01.2019 14:00:00 9,5 4,1 10,3 6,5 9,9 4 2 8 4 N 1033,2 59 4 0,0
12.01.2019 13:00:00 8,8 3,8 9,3 6,4 9,9 3 1 6 4 WSW 1033,6 58 0 0,0

tt = Température de l'air
td = dewpoint
tt 5cm = Température de l'air 5cm
tt -20cm = Température de l'air -20cm
tt -100cm = Température de l'air -100cm
ff = Vitesse du vent
fx = gusts
dd = Direction du vent
ppp = reduced air pressure
vv = visibility
sd = Ensoleillement
rr = Quantités de précipitations

stations d'obs. à proximité